TimeCET,TemperatureF,Dew PointF,Humidity,Sea Level PressureIn,VisibilityMPH,Wind Direction,Wind SpeedMPH,Gust SpeedMPH,PrecipitationIn,Events,Conditions,WindDirDegrees,DateUTC
12:20 AM,46.4,37.4,71,30.15,-9999.0,NNW,3.5,-,N/A,,Clear,340,2011-11-14 23:20:00
12:50 AM,46.4,39.2,76,30.15,-9999.0,Variable,2.3,-,N/A,,Clear,0,2011-11-14 23:50:00
1:00 AM,45,38,70,30.16,6,NNW,3.5,,,,,340,2011-11-15 00:00:00
1:20 AM,44.6,37.4,76,30.15,-9999.0,NNW,3.5,-,N/A,,Clear,340,2011-11-15 00:20:00
1:50 AM,44.6,39.2,81,30.12,-9999.0,NW,4.6,-,N/A,,Clear,320,2011-11-15 00:50:00
2:20 AM,42.8,37.4,81,30.12,-9999.0,NW,4.6,-,N/A,,Clear,320,2011-11-15 01:20:00
2:50 AM,44.6,39.2,81,30.12,-9999.0,West,3.5,-,N/A,,Clear,280,2011-11-15 01:50:00
3:20 AM,42.8,37.4,81,30.12,-9999.0,WNW,5.8,-,N/A,,Clear,290,2011-11-15 02:20:00
3:50 AM,44.6,39.2,81,30.09,-9999.0,NW,5.8,-,N/A,,Clear,320,2011-11-15 02:50:00
4:00 AM,44,38,71,30.13,6,NW,5.8,,,,,320,2011-11-15 03:00:00
4:20 AM,42.8,37.4,81,30.09,-9999.0,NW,4.6,-,N/A,,Clear,320,2011-11-15 03:20:00
4:50 AM,42.8,39.2,87,30.09,-9999.0,WNW,3.5,-,N/A,,Clear,300,2011-11-15 03:50:00
5:20 AM,42.8,37.4,81,30.09,-9999.0,NW,5.8,-,N/A,,Clear,320,2011-11-15 04:20:00
5:50 AM,42.8,37.4,81,30.09,-9999.0,NW,3.5,-,N/A,,Clear,320,2011-11-15 04:50:00
6:20 AM,44.6,39.2,81,30.09,-9999.0,NNW,3.5,-,N/A,,Clear,330,2011-11-15 05:20:00
6:50 AM,42.8,39.2,87,30.09,-9999.0,NW,3.5,-,N/A,,Clear,320,2011-11-15 05:50:00
7:00 AM,44,39,75,30.12,6,NW,3.5,,,,,320,2011-11-15 06:00:00
7:20 AM,44.6,39.2,81,30.09,6.2,North,3.5,-,N/A,,Unknown,350,2011-11-15 06:20:00
7:50 AM,44.6,39.2,81,30.12,-9999.0,NNW,3.5,-,N/A,,Clear,330,2011-11-15 06:50:00
8:20 AM,48.2,41.0,76,30.12,-9999.0,North,3.5,-,N/A,,Clear,350,2011-11-15 07:20:00
8:50 AM,51.8,39.2,62,30.12,-9999.0,North,4.6,-,N/A,,Clear,10,2011-11-15 07:50:00
9:20 AM,51.8,39.2,62,30.12,-9999.0,NE,4.6,-,N/A,,Clear,40,2011-11-15 08:20:00
9:50 AM,55.4,39.2,54,30.12,-9999.0,NNE,3.5,-,N/A,,Clear,30,2011-11-15 08:50:00
10:00 AM,55,39,44,30.13,6,NNE,2.3,,,,,30,2011-11-15 09:00:00
10:20 AM,55.4,39.2,54,30.12,-9999.0,Variable,2.3,-,N/A,,Clear,0,2011-11-15 09:20:00
10:50 AM,57.2,37.4,48,30.09,-9999.0,Variable,2.3,-,N/A,,Clear,0,2011-11-15 09:50:00
11:20 AM,57.2,35.6,44,30.09,-9999.0,NNE,3.5,-,N/A,,Clear,30,2011-11-15 10:20:00
11:50 AM,59.0,35.6,42,30.09,-9999.0,Variable,2.3,-,N/A,,Clear,0,2011-11-15 10:50:00
12:20 PM,60.8,35.6,39,30.06,-9999.0,Variable,2.3,-,N/A,,Clear,0,2011-11-15 11:20:00
12:50 PM,60.8,33.8,36,30.06,-9999.0,Variable,2.3,-,N/A,,Clear,0,2011-11-15 11:50:00
1:00 PM,60,33,24,30.08,6,NNE,4.6,,,,,20,2011-11-15 12:00:00
1:50 PM,60.8,32.0,34,30.04,-9999.0,Variable,1.2,-,N/A,,Clear,0,2011-11-15 12:50:00
2:20 PM,60.8,33.8,36,30.04,-9999.0,Variable,2.3,-,N/A,,Clear,0,2011-11-15 13:20:00
2:50 PM,60.8,32.0,34,30.04,-9999.0,NNE,3.5,-,N/A,,Clear,20,2011-11-15 13:50:00
3:20 PM,60.8,32.0,34,30.04,-9999.0,NE,3.5,-,N/A,,Clear,40,2011-11-15 14:20:00
3:50 PM,59.0,33.8,39,30.04,-9999.0,NNE,3.5,-,N/A,,Clear,30,2011-11-15 14:50:00
4:00 PM,59,35,29,30.05,6,NNE,4.6,,,,,30,2011-11-15 15:00:00
4:50 PM,55.4,35.6,47,30.04,-9999.0,Calm,Calm,-,N/A,,Clear,0,2011-11-15 15:50:00
5:20 PM,55.4,35.6,47,30.04,-9999.0,Calm,Calm,-,N/A,,Clear,0,2011-11-15 16:20:00
5:50 PM,53.6,37.4,54,30.04,-9999.0,Variable,1.2,-,N/A,,Clear,0,2011-11-15 16:50:00
6:20 PM,51.8,37.4,58,30.06,-9999.0,West,2.3,-,N/A,,Clear,280,2011-11-15 17:20:00
6:50 PM,51.8,39.2,62,30.06,-9999.0,Variable,2.3,-,N/A,,Clear,0,2011-11-15 17:50:00
7:00 PM,51,39,53,30.07,22,NW,3.5,,,,,320,2011-11-15 18:00:00
7:20 PM,50.0,39.2,66,30.06,-9999.0,Variable,2.3,-,N/A,,Clear,0,2011-11-15 18:20:00
7:50 PM,50.0,39.2,66,30.06,-9999.0,ENE,4.6,-,N/A,,Clear,60,2011-11-15 18:50:00
8:20 PM,50.0,41.0,71,30.06,-9999.0,Variable,2.3,-,N/A,,Clear,0,2011-11-15 19:20:00
8:50 PM,50.0,41.0,71,30.06,-9999.0,Variable,2.3,-,N/A,,Clear,0,2011-11-15 19:50:00
9:20 PM,48.2,39.2,71,30.06,-9999.0,Variable,1.2,-,N/A,,Clear,0,2011-11-15 20:20:00
9:50 PM,48.2,39.2,71,30.06,-9999.0,Variable,2.3,-,N/A,,Clear,0,2011-11-15 20:50:00
10:00 PM,48,39,63,30.09,6,NNE,2.3,,,,,20,2011-11-15 21:00:00
10:20 PM,46.4,37.4,71,30.06,-9999.0,Variable,2.3,-,N/A,,Clear,0,2011-11-15 21:20:00
10:50 PM,46.4,39.2,76,30.06,-9999.0,Variable,2.3,-,N/A,,Clear,0,2011-11-15 21:50:00
11:20 PM,44.6,37.4,76,30.06,-9999.0,NNE,4.6,-,N/A,,Clear,30,2011-11-15 22:20:00
11:50 PM,44.6,39.2,81,30.06,5.0,NW,2.3,-,N/A,,Unknown,320,2011-11-15 22:50:00